Погода в Бетлице

Россия / Калужская область     54°00′50″N   33°56′42″E
темп.,
°C
ветер,
м/с
пор.,
м/с
влажн.,
%
обл.,
%
осадки,
мм/ч
давл.,
гПа
погр.,
м
25 июля, вс
вс2500:00+12вюв22780 0.0 101823
03:00+11в22750 0.0 101915
06:00+13вюв22735 0.0 101938
09:00+20юв22523 0.0 1020441
12:00+24юв22411 0.0 10201876
15:00+24ююв124399 0.0 10191582
18:00+22в355570 0.0 1020400
21:00+18вюв247231 0.0 102184
26 июля, пн
пн2600:00+17юв2373100 0.0 102276
03:00+17ююв117787 0.0 102221
06:00+17ю238095 0.0 102268
09:00+19ю2372100 0.0 1023205
12:00+26ююз22440 0.0 10221518
15:00+26юз234593 0.0 10211201
18:00+25зюз235377 0.0 1021504
21:00+20ююв1172100 0.1 102214
27 июля, вт
вт2700:00+18ю24808 0.0 102280
03:00+16ю1190100 0.2 102312
06:00+16ю229145 0.8 102329
09:00+21ююз246836 0.8 1022327
12:00+27юз344343 0.0 10211383
15:00+27юз444071 0.0 10201434
18:00+26ююз255195 0.0 1019872
21:00+21юв267196 0.0 101897
28 июля, ср
ср2800:00+20ююв21072100 0.0 1018238
03:00+18ююв2272100 0.0 101743
06:00+16всв3596100 1.1 1016101
09:00+16юв41094100 1.5 1015316
12:00+17ююв41197100 0.6 1013541
15:00+19ююз379371 1.3 1011328
18:00+22зсз4888100 2.7 1010788
21:00+19зсз3109712 4.0 1010376
29 июля, чт
чт2900:00+17зсз399817 0.0 1010350
03:00+16зсз389952 0.0 1010350
06:00+16з289940 0.0 1011280
09:00+20зсз368399 0.0 1011544
12:00+25зсз4657100 0.1 10111377
15:00+27сз464649 0.1 10112164
18:00+26сз465010 0.0 10101638
21:00+22з2266100 0.0 101148